Theta_e
305 305 305 305 304 304 305 305 303 302 303 303 303 304 305 308 309 308 310 312 312 312 318 326 326 322 321 319 318 317 317 318 317 314 315 314 313 315 316 316 318 317 317 319 320 320 321 322 322 322 322 322 322 323 324 322 322 323 321 321 328 333 328 318 314 320 325 325 326 326 324 324 321 321 324 323 322 321 318 323 329 323 319 324 321 316 334
305 305 304 304 304 304 305 305 303 302 303 303 303 305 306 306 307 309 311 313 311 313 319 325 328 328 325 321 320 319 318 319 319 317 317 316 315 314 314 315 317 318 318 318 320 322 320 321 322 322 323 325 327 326 325 322 321 321 323 326 326 324 325 321 315 316 318 319 321 320 319 322 323 325 326 323 325 326 324 329 327 320 321 323 320 319 335
305 304 305 304 304 305 305 304 303 302 302 303 303 305 307 308 309 310 311 312 312 315 318 318 322 325 322 320 322 322 321 322 321 320 320 319 317 316 316 316 317 318 319 319 322 322 320 321 324 327 328 329 333 333 332 327 322 320 330 334 325 322 329 324 315 315 316 315 317 319 322 326 327 329 326 323 326 323 323 325 318 317 324 325 323 326 336
304 304 305 304 304 305 305 304 302 302 302 302 303 306 307 310 316 316 314 313 312 314 314 311 315 319 319 322 325 322 323 325 323 321 321 320 319 317 318 319 317 317 318 319 320 322 322 322 325 330 330 330 336 338 336 333 328 332 340 337 332 334 334 325 319 318 317 318 324 334 336 325 319 323 324 323 325 323 327 325 318 324 330 326 334 340 330
303 304 304 304 304 305 305 304 302 302 303 302 303 306 307 310 317 316 315 317 316 314 312 311 313 316 317 322 326 322 323 325 324 324 323 323 321 318 319 319 318 319 319 318 319 321 322 322 324 327 327 331 338 337 336 336 339 351 350 335 336 337 325 323 327 323 320 323 328 335 335 323 318 322 321 323 326 323 324 321 322 335 327 319 346 359 329
302 303 303 303 304 304 305 304 303 302 302 302 305 308 310 313 316 312 311 316 317 314 313 313 314 314 315 320 323 322 323 323 324 323 321 322 322 320 322 320 317 319 319 318 320 322 324 325 327 328 331 339 342 335 334 335 337 347 342 331 335 331 320 324 327 322 324 326 325 329 330 325 325 325 322 323 326 322 320 321 328 338 323 316 344 359 335
302 303 302 303 304 304 305 304 303 303 303 302 305 309 309 310 312 310 310 313 313 313 312 313 315 315 315 320 323 322 322 321 320 317 317 323 325 323 326 326 322 322 323 323 325 326 326 324 328 334 338 340 340 335 334 335 334 335 334 335 334 325 327 336 325 318 324 323 322 327 326 325 324 324 326 326 325 324 322 323 330 333 326 325 342 352 343
302 302 302 303 303 304 304 304 303 303 303 302 304 306 306 306 307 308 309 311 311 311 311 313 314 313 314 322 324 320 319 320 318 316 317 324 326 325 329 331 328 327 329 329 328 328 329 327 331 338 338 335 338 339 337 336 335 333 333 338 332 323 334 346 328 317 321 321 323 325 321 323 321 319 326 325 322 325 321 321 332 331 328 333 340 343 343
302 303 303 303 303 303 304 303 303 304 303 302 302 303 304 305 305 306 308 310 311 313 313 312 313 313 316 321 321 316 318 318 316 316 316 318 323 325 326 327 326 328 333 335 330 326 327 328 329 331 331 331 337 341 339 334 334 338 338 338 336 331 336 342 327 315 317 321 322 323 321 322 318 315 322 323 320 323 321 324 336 334 329 335 335 333 337
303 303 303 303 303 303 303 303 304 304 303 302 302 302 303 304 304 305 308 310 311 312 313 312 312 314 316 317 314 313 315 314 313 319 320 317 319 321 320 322 325 329 334 334 327 321 321 322 322 322 324 327 331 333 335 332 330 338 341 338 341 339 334 335 328 318 319 322 320 322 320 315 315 319 321 321 323 326 323 326 336 338 336 335 330 328 336
304 304 304 303 303 303 303 303 304 304 304 303 302 302 302 303 304 305 307 310 310 311 313 314 313 313 312 311 311 311 313 312 313 318 320 318 317 317 316 320 325 330 332 327 320 317 318 317 318 320 321 324 329 331 333 333 330 333 336 337 343 343 336 336 330 320 322 327 323 322 317 313 323 338 334 325 324 324 324 328 338 344 346 344 341 342 347
305 305 304 304 304 303 303 303 304 304 304 304 303 302 302 302 303 305 307 310 310 310 312 312 311 311 310 310 310 311 311 312 312 314 314 314 314 313 316 321 324 329 329 320 315 317 321 321 323 323 323 327 335 338 337 336 332 331 333 333 338 341 338 338 333 324 325 329 321 316 317 324 340 350 341 332 326 324 332 341 346 349 350 353 355 353 353
305 305 304 304 304 304 304 303 303 304 304 305 304 303 302 302 303 304 307 309 310 309 310 310 309 309 310 310 310 311 311 312 312 312 313 314 313 314 319 323 324 323 319 314 316 323 333 339 334 330 334 338 339 341 339 334 329 331 333 331 332 336 337 339 336 328 324 322 317 318 327 340 346 342 340 340 335 332 337 338 338 342 345 352 362 363 360
305 305 305 305 305 305 305 304 304 304 304 305 304 303 303 302 302 303 305 308 309 309 310 311 310 310 310 310 311 311 310 311 311 311 312 314 315 317 320 322 321 318 314 315 322 330 340 346 339 332 338 340 334 337 341 336 330 332 335 335 334 335 339 338 330 327 331 327 323 326 331 334 338 341 342 341 337 336 339 337 335 339 340 346 359 364 357
304 304 304 304 305 305 305 304 304 304 304 305 305 304 303 302 302 303 305 307 309 309 310 310 310 311 312 311 311 310 310 311 311 310 312 315 318 319 318 318 316 312 312 318 329 337 338 337 332 328 332 334 329 333 341 340 336 336 336 338 337 335 340 340 327 327 338 334 326 328 328 327 340 351 343 337 335 335 339 338 335 338 340 342 349 353 351
304 304 304 304 304 305 305 305 305 304 304 305 305 304 303 302 302 303 305 306 309 310 310 309 309 311 311 310 310 310 311 312 310 311 316 319 319 318 315 313 312 312 319 331 338 340 337 334 333 333 335 336 333 332 337 341 343 345 341 339 341 342 348 350 336 331 336 332 329 335 333 332 345 354 344 337 336 335 336 333 329 336 344 344 344 344 344
304 304 304 303 304 305 305 305 305 305 304 304 304 304 303 302 302 303 304 306 308 309 308 308 309 310 310 310 310 311 312 311 311 315 318 319 318 316 312 313 314 315 327 344 346 340 334 332 334 336 338 339 333 331 336 339 340 344 345 345 355 363 360 350 341 338 340 339 337 339 338 337 344 346 340 337 336 335 332 327 329 341 345 343 342 342 342
303 304 304 303 303 304 304 305 305 305 305 305 304 304 304 303 302 303 304 305 307 309 308 308 309 310 310 310 310 311 311 310 311 314 315 318 320 317 311 312 318 320 328 341 346 343 339 334 330 331 336 339 333 330 336 338 338 346 352 348 351 361 360 348 343 345 346 343 337 335 338 342 343 339 336 334 334 331 327 326 334 345 343 341 341 339 340
303 303 303 303 304 304 304 304 304 305 305 305 305 304 304 303 302 303 304 305 307 308 308 308 309 309 309 309 309 309 309 309 311 311 312 317 319 314 311 316 321 323 329 337 340 339 340 341 336 332 335 343 340 334 335 337 339 348 354 344 338 346 353 349 345 344 343 342 338 333 336 340 337 333 334 335 333 332 332 333 339 341 339 340 343 340 340
303 303 303 304 304 303 303 304 304 304 305 304 304 304 304 303 302 303 304 304 305 306 306 307 307 307 308 308 308 308 308 309 311 311 310 313 311 310 319 329 326 324 332 338 338 335 336 340 340 335 336 343 343 339 341 345 344 347 351 348 345 347 347 344 345 343 341 342 337 329 332 337 333 334 343 345 341 341 342 342 342 342 341 342 344 344 343
303 303 303 303 303 303 303 303 304 304 304 304 304 304 304 303 302 303 303 303 304 305 306 306 306 307 307 307 307 308 308 308 310 310 309 310 308 309 319 325 322 325 332 333 334 334 332 333 335 333 336 341 342 340 343 346 343 342 347 352 352 350 344 342 347 347 344 344 339 331 335 338 333 334 344 345 341 341 343 344 344 344 344 343 345 348 346
303 303 303 303 304 304 304 303 304 304 304 304 304 304 304 303 303 303 303 303 303 304 305 305 305 305 305 306 306 307 307 307 308 309 308 309 309 310 313 312 314 324 332 330 333 335 332 331 333 333 335 339 341 340 341 343 342 342 342 342 344 346 345 346 350 347 341 342 343 340 341 340 335 334 337 336 335 336 338 340 342 344 345 346 346 347 347
303 303 303 303 304 304 304 304 304 304 304 304 304 304 303 303 303 303 303 302 303 303 303 304 305 305 305 306 306 306 307 307 308 308 308 308 308 310 311 309 313 324 330 330 333 335 332 331 332 332 335 339 339 339 342 343 344 343 341 340 341 341 344 351 355 349 342 340 341 341 340 339 337 335 333 331 332 333 333 336 340 341 343 345 345 348 348
303 303 303 303 304 303 304 304 304 304 304 304 304 304 303 303 303 303 302 303 303 304 304 305 306 307 307 307 306 306 308 308 309 309 308 307 308 311 313 313 315 322 326 326 328 330 331 331 330 330 335 339 337 338 342 342 340 340 342 345 343 338 338 345 349 348 348 349 345 340 339 339 339 337 333 331 331 331 331 334 335 336 337 339 341 345 346
303 303 303 303 303 303 303 304 304 304 304 304 304 304 303 304 304 302 302 302 303 304 305 305 306 306 306 307 307 307 308 307 308 309 310 308 307 309 313 314 313 316 320 323 326 329 331 332 331 330 331 335 337 338 339 339 339 339 342 344 341 338 338 342 344 347 352 351 344 340 339 339 340 340 336 334 333 332 332 332 332 332 331 331 332 335 338
303 303 303 303 303 303 304 304 304 304 304 304 304 304 303 303 303 303 302 301 302 303 304 305 306 306 307 307 307 307 307 306 307 308 310 310 309 308 310 311 310 311 318 323 326 329 328 328 329 328 327 332 337 337 337 338 338 339 342 340 336 336 339 341 342 344 345 341 339 340 342 340 340 342 341 339 336 333 332 331 330 329 328 327 327 328 330
303 303 303 303 303 303 304 304 304 304 304 304 303 304 304 303 303 303 302 302 303 305 306 307 307 306 306 306 306 306 306 307 307 308 308 310 311 309 308 310 311 311 314 317 319 324 326 325 327 329 329 332 334 335 338 339 337 339 341 337 334 336 339 339 340 342 342 340 339 340 342 341 340 340 340 339 335 331 330 330 329 328 327 326 325 325 325
303 303 303 303 303 304 304 304 304 304 304 303 304 304 303 303 302 302 302 302 303 305 306 307 306 306 307 307 306 306 307 306 307 308 308 309 311 310 310 310 310 311 313 313 314 321 326 325 325 328 331 332 333 335 338 339 338 340 337 332 332 336 336 337 340 340 337 337 337 336 337 337 334 333 334 335 333 329 327 327 325 324 325 324 324 324 325
303 303 303 303 303 304 304 304 304 304 303 303 303 303 302 303 303 303 302 302 302 304 306 306 306 307 308 308 306 306 307 307 308 309 309 308 309 310 311 310 310 311 314 315 316 321 327 327 325 327 331 330 331 335 338 339 340 339 333 328 329 332 331 332 338 336 330 327 327 327 326 326 325 324 326 327 327 326 325 324 322 321 321 322 323 323 324
303 303 304 303 304 304 304 304 304 304 304 304 303 302 304 306 306 304 303 303 303 304 306 307 307 307 307 307 308 307 307 309 310 310 309 307 307 308 308 309 312 314 314 315 316 318 323 325 324 325 326 325 327 334 338 340 339 335 330 327 327 329 330 330 333 332 329 325 323 322 323 323 322 322 323 323 324 325 325 324 323 322 321 321 322 323 323
303 303 303 303 304 304 304 304 304 304 304 303 302 303 306 308 307 305 305 304 304 304 305 306 307 307 307 308 310 310 310 311 313 312 309 306 306 308 307 308 314 317 317 316 316 318 321 322 322 323 324 324 329 334 335 337 338 332 328 327 327 327 328 328 328 329 329 327 324 323 324 326 326 326 326 324 324 324 325 325 325 325 323 321 320 321 321
303 304 303 303 303 303 303 304 304 304 304 303 303 303 304 304 304 304 305 305 304 303 305 306 306 307 309 311 311 311 311 313 314 313 311 309 309 309 309 311 316 320 322 321 319 319 324 325 323 323 324 326 331 334 331 331 332 329 326 327 327 325 325 327 326 327 328 329 330 329 327 327 329 330 331 329 327 327 327 326 324 322 322 321 320 320 320
303 303 303 303 303 303 303 304 303 303 303 303 303 302 301 301 301 302 304 305 303 303 305 307 307 308 310 311 313 313 311 313 314 311 311 315 315 311 311 316 318 317 318 320 319 321 326 325 321 320 323 324 329 334 331 327 326 326 325 326 326 324 324 325 325 325 326 328 331 332 330 329 328 327 327 327 326 325 324 322 321 321 321 321 322 322 322
303 303 303 303 303 302 303 303 303 303 303 303 302 302 302 303 304 303 302 302 302 304 305 306 307 310 309 310 317 319 312 311 315 312 312 318 317 313 314 317 316 313 315 318 320 321 323 321 319 322 325 323 324 330 330 326 324 324 324 324 324 323 323 324 324 323 322 323 326 326 326 325 324 323 323 323 322 320 320 320 321 322 323 323 324 324 324
303 303 302 302 302 302 302 302 303 303 303 302 302 303 305 306 307 306 305 304 303 306 308 307 308 310 309 313 322 324 313 310 314 314 314 317 316 317 320 319 313 313 315 315 316 317 318 321 324 326 325 324 325 328 328 326 324 324 323 322 323 324 324 324 324 324 321 320 321 322 320 320 321 322 323 323 322 321 322 323 323 324 325 325 325 325 326
303 302 302 302 301 302 302 303 303 303 303 303 303 304 306 307 308 307 307 306 304 306 309 309 309 310 312 315 320 319 314 315 317 315 314 315 316 320 325 321 316 317 317 316 320 321 320 323 327 327 325 325 325 325 324 323 322 322 321 321 321 322 322 322 323 325 323 321 320 320 320 320 321 323 323 323 322 322 323 324 325 325 327 327 326 326 327
302 301 301 302 302 303 304 303 303 304 304 304 305 305 306 308 309 307 306 306 306 306 308 309 310 310 311 313 314 313 314 320 320 314 313 319 321 321 322 323 324 324 321 320 325 326 323 324 327 326 326 326 325 323 324 323 322 321 321 320 321 321 321 322 322 322 322 321 321 321 322 322 323 324 323 323 324 324 324 325 326 326 327 328 327 326 325
302 302 302 303 304 305 306 305 304 305 305 305 306 307 307 308 309 308 307 308 308 308 307 308 308 309 309 310 311 311 312 318 321 319 317 319 320 319 320 323 327 326 322 319 322 324 326 327 326 325 325 326 324 323 323 322 321 321 321 321 321 322 322 323 322 320 322 324 324 324 325 326 326 326 326 326 325 325 324 325 327 327 327 328 327 325 324
303 303 303 304 305 307 307 306 304 305 305 305 306 308 309 309 310 310 309 309 309 309 308 308 308 309 309 310 311 311 310 314 320 323 321 318 316 316 318 321 323 325 325 322 321 324 327 328 326 326 326 325 324 324 323 321 320 320 320 320 320 320 321 322 322 321 322 324 324 323 325 327 327 327 327 327 326 325 325 326 326 325 325 326 326 324 324
303 304 304 305 306 305 305 305 304 305 307 307 307 308 308 309 310 311 310 310 311 311 309 310 310 309 308 308 310 311 312 314 316 320 322 322 321 320 320 321 324 328 327 323 323 327 329 328 327 327 326 325 324 323 322 321 320 320 319 320 320 320 320 321 320 320 321 322 322 322 323 324 326 327 328 328 328 327 327 326 325 323 322 324 325 324 324
303 303 304 304 304 303 304 305 306 306 308 309 309 309 308 309 310 311 311 313 314 312 310 312 315 313 310 308 309 312 315 315 315 318 323 323 322 323 323 322 323 327 325 322 324 330 330 327 327 327 326 324 323 322 321 322 321 319 319 320 319 319 320 320 320 320 320 322 323 322 321 322 325 326 325 326 327 327 326 325 325 322 321 322 323 323 322
303 303 303 303 303 303 304 306 307 307 308 309 309 310 309 308 308 308 310 312 314 312 311 313 317 317 315 312 311 315 317 316 315 321 324 320 317 322 327 325 323 324 323 322 325 330 329 326 326 327 325 323 322 322 322 322 321 319 319 319 319 320 321 321 321 320 320 321 323 322 321 321 322 322 321 322 324 324 323 324 324 322 321 321 321 321 321
303 303 303 304 304 304 305 306 307 308 309 309 307 307 309 311 311 310 311 313 313 311 312 313 314 315 314 313 314 318 317 314 314 321 323 317 315 321 326 325 322 320 321 322 324 326 328 327 326 326 324 322 322 322 322 321 321 321 320 319 319 318 319 320 321 320 319 319 321 321 319 319 320 320 320 321 322 322 322 322 322 322 321 321 320 320 320
304 304 304 304 306 307 308 308 308 307 309 311 310 308 309 311 312 312 312 313 312 312 314 314 314 314 315 317 318 318 316 315 318 322 321 318 319 321 321 319 318 319 321 322 322 323 326 326 325 324 323 322 322 322 322 322 322 322 321 320 319 319 319 319 320 320 320 320 320 320 319 319 319 320 320 321 321 322 322 321 321 321 320 320 320 320 320
305 307 307 307 308 308 308 309 309 308 308 311 312 309 307 308 311 314 314 313 312 313 315 315 313 313 316 318 316 315 317 321 323 320 318 320 321 319 315 316 320 324 325 323 322 324 326 325 324 324 324 323 323 323 324 324 323 323 323 322 321 321 321 321 321 321 322 321 320 320 320 319 319 319 320 319 320 321 321 321 321 321 320 320 320 320 321
305 306 306 307 308 308 308 309 310 309 309 309 309 308 308 309 312 313 312 313 314 315 314 313 314 315 319 321 318 317 321 325 322 317 317 320 318 314 315 319 322 324 324 324 324 325 325 324 323 324 324 323 324 324 325 324 324 323 323 323 322 322 323 322 322 322 321 320 318 319 319 319 318 319 319 319 319 320 321 322 322 321 320 320 319 320 321
306 306 306 307 309 308 308 309 309 308 309 310 310 310 310 311 311 312 312 314 315 315 313 313 315 316 317 318 318 317 320 323 320 315 316 319 317 314 317 322 322 321 322 323 324 324 323 323 323 324 324 324 324 325 326 325 325 324 324 324 324 324 324 324 325 324 321 319 320 321 320 318 318 319 319 319 319 320 321 322 322 322 321 320 320 321 321
306 306 306 308 308 308 307 308 308 308 309 311 311 311 312 313 314 315 316 316 316 314 313 315 320 320 317 318 319 318 319 321 318 314 315 319 319 317 319 322 322 320 321 322 322 323 323 322 323 324 324 324 324 325 326 326 325 325 326 326 326 325 325 326 326 323 320 320 321 321 319 318 318 318 318 319 319 319 320 321 322 322 322 322 322 322 321
305 305 305 307 308 308 307 307 307 308 309 310 310 311 312 312 313 314 314 313 314 315 314 316 320 321 317 317 319 319 317 315 315 316 317 319 318 317 319 323 323 321 321 321 323 323 322 321 322 324 325 325 325 325 326 325 325 325 326 326 323 322 323 324 323 320 317 318 319 318 318 319 318 318 318 319 320 319 319 320 320 321 321 321 322 322 321
302 304 306 307 308 309 309 307 308 310 311 310 310 311 311 311 312 313 313 312 314 318 319 319 320 320 317 316 318 318 314 314 317 321 321 320 319 320 323 325 324 322 321 321 322 322 320 320 322 325 326 326 326 326 325 325 326 326 324 320 316 315 317 318 317 316 315 317 318 318 319 319 318 317 319 321 320 318 317 317 318 319 320 320 321 321 321
305 306 308 307 307 309 309 309 310 311 311 310 311 312 312 312 312 312 311 313 317 320 320 318 318 319 319 317 316 314 312 315 320 322 320 319 319 322 325 324 321 320 321 320 321 322 322 322 324 326 326 325 326 326 325 325 325 323 318 315 314 314 315 315 315 315 315 316 317 318 319 318 318 319 320 319 317 317 317 317 317 318 318 318 319 319 319
307 307 308 308 309 310 310 310 311 312 311 312 313 313 312 312 312 310 310 314 318 319 317 317 320 321 318 315 313 314 316 318 320 321 320 320 320 321 322 321 320 319 320 321 322 323 324 323 324 324 324 324 325 325 324 326 326 322 316 313 314 315 315 315 315 315 315 316 316 318 318 318 318 319 319 317 318 320 320 318 316 317 318 318 317 318 318
Wind_Speed
20 21 21 21 23 24 26 28 29 32 33 32 29 18 5 1 5 11 7 6 2 5 1 3 3 3 4 4 3 2 2 2 3 3 1 2 3 2 3 4 5 5 5 5 5 5 4 5 7 5 4 5 7 9 9 6 5 5 5 7 7 4 3 5 5 4 4 7 5 1 3 4 3 4 4 6 7 7 7 5 4 4 3 2 2 3 6
20 21 21 21 22 22 25 26 27 29 29 30 24 11 3 2 5 8 6 7 5 2 2 3 3 3 4 4 4 3 3 3 3 3 3 2 3 2 3 4 5 5 5 5 6 6 4 4 5 4 4 4 7 10 9 6 5 6 6 6 6 4 3 5 4 3 4 5 5 4 3 4 4 4 4 6 7 6 3 2 3 5 6 7 5 4 6
21 21 21 21 20 21 23 24 26 27 27 28 20 5 3 4 3 4 5 4 3 3 2 1 2 3 3 3 4 3 3 4 6 7 5 5 5 3 4 5 5 5 5 5 7 7 5 3 3 1 2 4 6 5 5 4 5 9 11 10 8 6 4 5 7 6 6 7 6 6 5 3 3 3 6 8 9 10 5 2 4 6 5 6 6 5 6
21 21 20 20 19 20 21 22 24 26 27 28 19 5 3 3 1 3 5 2 0 1 1 2 1 2 3 3 4 3 3 4 5 7 6 6 7 5 5 6 4 5 6 6 7 7 6 5 3 3 3 3 4 4 6 4 5 8 10 10 6 3 4 7 10 11 10 9 9 7 5 5 5 6 8 9 9 11 9 5 5 7 4 4 6 6 6
21 21 20 19 18 20 20 21 23 24 26 27 16 4 2 1 2 2 3 3 2 2 2 4 2 2 2 2 3 3 3 3 2 4 4 5 5 4 5 7 5 5 6 5 6 7 6 6 6 6 6 5 4 6 7 5 4 6 4 10 7 3 4 7 11 14 14 14 13 9 7 7 8 9 10 10 9 10 10 7 7 7 6 5 8 6 8
21 20 19 18 18 19 18 19 21 22 26 25 11 3 2 1 2 2 2 3 2 1 3 5 4 4 3 2 3 3 3 3 2 2 3 3 3 3 3 7 9 9 8 6 5 5 5 7 7 6 6 4 3 5 6 5 3 7 2 5 5 4 5 6 8 12 15 15 12 9 8 7 8 9 10 10 9 10 12 11 10 10 8 10 8 9 10
20 20 19 18 17 17 17 18 19 20 23 20 7 1 2 2 2 3 3 2 3 4 6 6 6 5 4 3 3 3 4 3 2 2 3 5 3 4 2 5 8 8 8 5 4 5 6 7 7 6 6 3 0 2 5 5 3 7 5 2 1 3 5 5 9 11 14 14 12 9 9 8 8 8 9 9 9 12 13 12 10 10 10 10 8 12 13
20 19 19 18 16 16 16 16 17 18 21 16 5 1 3 2 1 3 3 3 5 5 4 4 5 4 4 4 3 3 3 2 5 4 3 3 3 1 2 6 6 6 7 7 7 9 9 8 7 6 6 5 2 1 3 3 4 7 3 1 1 2 4 2 6 6 10 11 11 10 10 10 11 13 12 9 8 8 9 8 5 5 8 7 4 8 10
19 18 18 18 16 15 14 15 15 15 16 12 4 2 4 4 4 4 3 4 4 3 3 2 2 3 3 2 2 4 4 4 7 7 6 6 5 2 3 7 7 5 7 7 7 6 4 6 7 5 5 6 3 4 3 1 4 7 2 1 2 1 2 2 4 2 6 7 9 11 9 8 10 13 13 10 7 6 7 6 6 7 8 6 4 5 9
18 17 17 16 15 14 14 13 13 13 11 7 3 3 6 6 5 3 3 3 3 3 3 2 2 2 1 2 4 4 6 7 8 6 4 6 7 2 5 7 5 4 6 4 2 5 7 8 8 5 6 8 5 3 2 1 1 3 3 2 1 2 1 2 2 3 6 7 8 8 5 4 6 9 11 11 9 7 5 4 6 8 8 7 7 8 9
17 16 16 15 14 14 13 12 12 11 8 5 2 2 5 5 4 2 2 3 3 1 2 2 2 1 3 6 7 6 8 9 6 4 4 5 6 5 8 7 4 4 5 2 4 8 10 10 7 5 5 8 7 1 4 4 3 4 2 2 3 2 2 0 2 3 6 7 3 4 4 5 7 6 8 11 12 12 10 7 7 8 6 4 6 7 5
17 16 16 15 14 13 13 13 12 10 7 5 2 2 3 4 4 3 2 4 3 1 2 3 3 3 6 8 8 9 9 9 8 7 7 9 11 11 9 5 3 4 5 7 10 9 7 4 2 3 4 4 5 2 6 6 9 5 3 3 3 2 0 1 1 2 4 3 4 4 6 8 7 4 3 7 11 13 11 4 3 5 5 5 7 8 7
18 17 17 16 14 14 13 13 12 10 8 6 4 3 4 4 4 3 2 4 4 3 3 5 6 7 9 9 8 9 10 10 11 11 10 10 10 9 6 3 3 5 9 13 12 6 2 1 1 1 2 1 2 3 1 4 11 10 3 4 4 3 2 1 1 1 2 1 3 6 7 5 4 2 2 2 3 7 8 3 2 4 5 6 7 8 7
18 17 17 17 15 14 13 12 12 11 9 8 7 5 4 3 3 3 3 3 5 4 3 5 6 5 6 6 6 8 10 9 9 8 6 6 7 7 6 4 5 7 8 8 7 3 2 2 2 0 1 2 2 1 1 4 8 9 6 2 2 3 2 0 2 1 2 1 2 4 2 1 2 2 2 3 3 5 7 4 4 5 3 5 5 6 6
18 17 17 17 15 14 13 12 12 11 9 9 8 7 7 5 4 5 4 3 5 5 4 5 3 2 3 5 6 7 7 6 6 6 6 5 5 5 5 6 8 10 7 3 2 2 2 1 1 1 0 1 3 2 0 1 4 6 4 2 2 2 2 2 3 2 2 3 0 1 0 2 5 4 3 2 3 4 5 5 3 3 2 1 4 5 5
18 17 17 17 16 14 13 12 12 11 10 9 9 9 8 5 4 7 6 3 4 5 3 3 1 4 5 6 7 6 5 4 5 6 5 5 5 6 8 9 9 8 4 1 1 2 2 1 2 2 3 3 3 2 2 3 1 3 3 2 3 3 2 3 2 1 1 4 3 3 3 4 5 5 5 1 1 4 5 6 3 2 5 3 2 5 4
17 17 17 17 15 14 13 12 12 11 10 10 9 9 9 7 4 6 6 3 4 5 5 6 6 4 4 4 4 3 2 3 3 3 3 5 6 8 10 10 8 5 4 3 2 2 2 1 1 1 3 3 3 3 3 4 4 1 2 4 3 4 3 3 3 2 1 2 2 3 3 2 2 4 6 5 3 2 6 5 3 3 5 3 2 4 4
17 17 17 16 15 14 14 12 12 10 10 10 9 9 10 8 4 5 5 3 4 5 5 6 6 4 3 2 3 2 2 4 3 2 3 5 3 6 9 8 6 5 5 4 3 3 2 0 1 1 3 3 1 3 3 4 6 5 2 2 3 3 2 2 1 1 3 1 2 2 3 3 3 6 9 8 3 3 5 5 5 4 4 3 5 2 3
17 17 16 16 15 15 14 13 12 11 9 9 8 9 9 7 5 6 5 4 4 5 4 4 4 3 3 3 4 3 3 4 3 2 4 3 2 7 9 4 2 4 4 3 2 2 1 1 0 2 1 3 1 0 2 3 4 4 6 4 1 2 1 2 1 1 2 2 2 2 2 2 6 12 11 5 2 3 4 4 3 4 2 5 8 5 4
17 16 16 16 15 15 14 13 12 11 9 9 9 9 10 8 6 6 6 4 5 7 8 9 10 9 7 5 7 7 5 3 3 2 2 3 4 9 6 1 2 4 3 2 2 2 1 2 2 1 0 2 2 1 2 2 1 2 6 7 4 3 1 2 1 1 1 1 2 1 3 2 11 14 8 3 3 5 5 3 2 3 2 6 8 5 5
16 16 16 15 14 14 14 12 12 11 10 10 9 9 10 8 4 4 4 5 5 4 5 6 8 10 9 8 10 11 8 7 6 4 4 4 3 3 1 2 3 3 2 1 1 1 1 2 2 1 1 1 2 1 2 2 2 1 2 5 5 5 4 2 2 2 1 1 3 2 4 5 10 8 3 3 2 2 4 4 4 2 3 5 7 5 5
16 15 15 15 14 13 12 12 11 11 10 9 8 8 9 8 6 5 6 7 7 8 11 16 20 23 26 28 28 27 24 23 20 13 8 5 3 2 3 5 5 3 1 1 1 0 2 2 1 1 1 1 2 2 1 1 1 3 2 2 3 3 4 3 2 2 3 4 5 5 4 4 6 5 4 5 6 5 4 3 5 5 3 4 5 6 6
15 15 14 14 13 12 11 11 11 11 10 9 9 10 10 10 9 7 7 7 8 10 17 23 24 23 25 29 31 29 28 29 29 24 16 7 3 3 4 4 4 2 0 1 2 2 1 2 0 1 0 1 1 2 3 1 1 2 2 0 1 1 3 3 2 3 3 3 3 4 3 2 5 6 5 5 6 6 5 5 7 6 4 5 5 5 5
14 14 13 13 12 11 11 11 11 10 10 9 9 11 11 11 11 7 5 4 4 6 9 11 10 9 12 15 17 18 18 22 25 26 23 16 6 2 3 5 3 2 2 2 2 2 2 2 1 1 1 1 1 1 3 2 2 2 1 2 3 3 4 3 3 5 4 2 2 5 5 3 3 4 5 6 7 5 4 6 6 4 5 7 6 6 6
13 13 12 12 11 11 10 10 10 9 9 9 9 9 10 11 10 5 2 2 2 3 5 5 6 11 14 15 16 16 17 17 18 20 23 24 17 9 5 3 1 3 3 2 1 2 0 1 3 3 2 2 1 0 2 2 2 1 2 2 2 2 3 3 3 2 2 4 5 3 5 3 2 3 3 4 5 5 5 5 4 5 7 8 7 7 6
12 12 12 11 10 9 9 9 9 8 9 8 9 10 11 12 11 7 5 3 3 4 5 5 7 9 11 14 19 22 20 17 17 18 22 26 28 24 15 7 5 5 3 0 2 2 1 1 3 3 1 2 1 1 2 2 3 1 1 1 2 3 3 2 4 2 1 5 7 5 2 2 4 4 4 4 4 4 5 5 6 7 8 9 10 9 8
11 11 11 10 9 8 8 7 7 8 8 8 8 10 11 14 14 12 10 6 3 3 4 4 6 10 12 17 25 27 20 16 15 16 19 23 27 26 17 9 6 4 2 1 0 1 1 1 2 3 3 2 2 2 2 3 3 0 2 2 2 1 2 2 3 4 3 3 4 5 4 2 1 2 5 5 5 3 7 7 8 9 8 9 11 10 9
10 9 9 9 8 7 7 7 7 7 8 8 9 12 15 18 20 19 17 13 8 4 4 4 7 11 12 14 21 22 17 14 14 15 17 20 23 21 14 9 6 4 1 1 1 0 1 2 2 2 3 2 2 2 2 2 2 2 3 4 3 1 1 1 3 4 2 1 2 0 1 4 3 5 6 5 5 5 8 8 8 8 7 8 11 11 11
8 7 7 8 7 6 6 7 7 7 7 7 9 12 14 15 15 16 18 17 13 6 4 5 6 6 7 11 18 18 14 11 12 14 14 13 15 15 10 7 6 5 3 2 1 1 2 3 2 2 3 3 2 1 1 1 1 2 3 6 5 1 2 1 5 4 3 5 6 4 5 7 7 8 8 7 7 7 8 7 7 7 8 10 12 11 10
6 6 6 6 6 6 6 6 6 6 6 7 8 7 6 4 3 7 12 12 11 7 3 4 4 4 5 9 12 11 9 7 7 10 8 7 8 9 8 7 5 3 2 1 1 2 2 2 2 2 2 3 3 1 1 1 1 3 5 7 6 4 3 4 7 7 4 4 4 7 9 9 8 9 10 10 9 8 7 7 8 9 10 11 11 10 8
6 6 6 5 5 5 5 6 6 6 7 6 4 1 1 1 3 8 14 11 4 3 2 3 4 5 5 5 5 7 8 7 5 4 5 5 5 5 7 7 3 2 3 2 1 2 2 2 2 2 2 1 2 2 1 2 2 3 5 7 6 6 7 7 8 10 6 2 4 8 10 7 6 8 10 10 10 10 9 8 9 10 11 11 10 9 8
5 5 5 5 5 6 6 6 6 6 8 8 6 6 8 8 4 7 14 7 3 3 1 2 3 3 3 4 5 6 7 5 3 1 2 3 3 3 5 4 2 2 3 3 1 1 2 2 2 2 2 1 2 3 2 3 3 1 3 5 7 8 8 7 6 5 3 1 4 8 10 8 7 8 8 8 9 9 8 7 7 7 8 10 10 10 11
4 4 4 5 6 6 6 7 7 8 9 11 14 16 15 13 9 9 13 10 7 3 2 1 3 3 3 4 5 5 2 2 1 0 1 2 2 3 2 2 2 2 2 2 2 2 2 1 1 1 2 2 3 3 3 4 3 3 4 6 7 8 9 8 6 5 4 2 4 7 7 4 5 6 6 6 5 3 1 2 1 3 7 10 10 9 10
3 3 4 6 6 7 7 7 8 9 9 9 12 11 7 4 2 7 14 12 6 2 2 1 1 3 4 3 4 3 1 1 1 1 1 2 1 3 2 0 2 1 2 2 1 1 1 1 0 0 2 3 3 3 3 4 4 4 5 6 7 8 9 8 7 6 5 5 5 7 8 6 4 3 3 4 4 2 1 2 3 5 8 8 7 7 7
3 4 5 6 8 8 9 8 8 8 7 6 7 6 7 7 5 3 8 10 4 0 1 2 1 3 4 3 4 4 4 2 2 2 2 2 1 2 2 2 1 1 2 1 1 1 1 1 1 2 3 3 3 4 3 3 4 3 4 4 4 6 7 6 5 5 5 4 4 4 4 5 5 4 5 5 5 4 5 5 5 6 7 6 5 5 6
4 5 6 8 9 8 7 6 6 5 4 4 7 10 10 7 6 3 5 9 6 2 1 1 1 2 2 2 3 4 5 3 1 1 1 1 0 0 2 3 1 2 1 1 1 1 3 2 2 3 3 3 3 3 3 3 4 4 3 2 2 3 5 6 6 6 5 4 4 4 3 4 5 5 5 5 4 4 5 5 5 6 7 6 5 5 5
6 7 8 8 7 5 4 3 4 5 5 9 13 12 7 4 3 1 3 5 6 4 2 0 2 3 2 2 3 3 4 3 1 1 1 1 2 1 2 3 2 2 1 3 2 2 3 3 3 5 4 3 3 4 4 4 4 4 3 4 4 4 4 4 5 6 4 3 4 4 4 6 6 4 4 5 4 5 6 6 5 5 6 6 5 5 5
7 8 7 5 3 1 1 2 3 6 12 14 11 5 1 2 1 0 0 1 2 3 2 1 3 3 1 2 3 3 2 2 1 2 1 1 1 0 1 1 2 1 2 2 1 2 2 3 4 5 4 3 4 5 5 4 4 4 5 5 4 3 3 2 1 3 4 5 5 4 4 6 6 4 4 5 5 5 5 4 4 4 5 5 4 4 4
6 6 4 2 1 1 2 4 8 11 12 7 2 1 0 1 1 0 1 1 2 2 1 2 3 3 2 3 4 3 2 2 2 2 1 0 0 1 0 0 0 1 3 1 1 2 3 2 2 4 3 3 4 4 4 4 4 5 5 4 4 3 4 4 2 1 4 6 4 2 3 5 5 3 3 4 4 4 4 4 4 4 4 4 4 4 4
5 4 2 1 2 5 9 11 11 8 4 0 1 0 0 0 1 1 1 1 1 2 2 2 2 3 4 4 4 4 2 2 1 1 1 1 1 1 1 0 0 2 3 1 1 2 3 2 2 3 3 2 2 3 3 3 4 4 4 4 4 4 3 4 4 3 4 5 4 2 2 4 4 4 4 4 4 4 4 4 4 4 4 5 5 4 4
5 4 2 4 8 13 16 13 7 2 1 1 1 1 0 1 1 1 1 1 2 2 2 1 1 2 3 4 3 4 3 2 1 1 1 1 1 2 3 0 0 3 3 1 1 1 3 3 3 3 2 1 2 2 2 3 4 5 4 4 3 2 3 5 5 5 5 5 4 4 4 4 4 4 4 4 4 4 3 3 3 4 4 4 4 4 5
9 9 9 12 14 14 11 6 2 1 1 1 1 0 1 1 1 1 1 1 2 1 1 1 1 3 3 3 3 3 3 2 1 1 1 1 1 2 2 1 1 3 2 1 1 2 2 3 3 2 1 2 2 2 3 3 3 3 3 2 1 2 4 6 7 7 7 6 4 4 4 5 5 4 4 5 5 4 4 4 4 4 4 5 5 6 8
12 9 8 8 7 5 2 1 1 0 1 1 1 1 2 2 1 1 1 2 1 1 1 1 1 2 2 1 2 2 2 1 1 1 2 1 1 2 2 2 2 2 1 1 2 3 3 3 4 2 0 2 2 3 3 2 2 3 3 4 5 6 7 7 6 6 7 7 6 6 6 6 6 7 8 8 7 5 5 6 7 6 7 8 8 9 10
8 3 1 2 2 1 1 1 1 1 2 1 1 1 1 2 2 2 1 2 2 2 1 2 1 2 2 1 1 1 2 2 1 2 2 1 2 2 2 1 1 1 1 2 2 2 2 3 3 1 1 2 2 2 2 2 3 4 5 6 6 7 7 7 6 6 7 7 7 7 8 8 8 9 10 10 8 6 5 6 8 9 9 9 10 11 12
4 2 2 2 2 1 1 1 1 1 1 1 0 0 1 2 2 2 2 2 2 2 3 4 2 1 2 2 1 0 1 1 2 2 1 1 2 2 1 1 1 1 2 3 2 1 2 3 2 2 1 1 2 2 3 3 4 4 4 5 6 6 5 5 5 5 4 4 5 6 7 7 7 7 8 9 10 9 7 7 8 10 10 9 10 11 12
1 1 2 2 2 1 1 1 2 2 1 1 1 1 2 3 4 4 3 2 2 3 4 5 3 2 3 2 0 1 1 1 2 2 1 1 2 1 1 1 2 2 2 2 2 2 2 2 1 1 1 1 2 3 4 4 4 4 4 4 4 5 4 5 5 4 4 5 6 6 6 6 6 6 7 9 11 12 11 10 10 10 10 9 9 11 12
1 1 1 2 1 2 1 1 1 2 2 3 2 2 3 4 4 4 3 3 3 3 4 4 3 2 2 1 1 1 1 2 2 1 2 2 2 1 1 3 3 2 2 2 2 2 1 1 1 2 2 3 3 4 4 4 4 4 4 4 5 5 6 6 5 5 5 6 6 6 6 7 7 7 7 8 9 11 12 11 10 11 10 9 9 10 12
1 1 1 2 1 2 2 2 2 3 3 3 3 3 3 2 2 3 3 3 3 3 4 4 2 1 1 2 2 1 2 2 2 1 1 2 2 2 2 3 2 2 2 2 1 1 1 1 1 2 3 3 3 3 4 4 4 4 5 5 5 6 6 6 6 6 6 6 5 5 5 7 8 8 7 7 8 11 12 11 9 10 10 9 10 11 11
0 1 1 2 1 1 2 1 2 3 4 3 3 3 3 3 4 5 4 3 3 3 4 3 0 2 2 2 2 2 2 2 2 1 1 3 2 1 1 3 3 2 2 1 1 2 1 1 1 2 3 2 2 2 3 4 4 4 4 4 5 5 4 5 5 6 7 7 5 5 7 7 8 9 8 7 7 10 11 10 9 10 11 10 10 11 11
2 2 1 1 1 2 3 2 2 3 5 5 4 4 5 5 6 5 4 4 4 2 1 2 2 2 1 2 3 3 2 2 2 2 3 3 2 1 2 3 2 1 1 1 2 1 1 1 1 1 2 2 2 3 3 4 4 4 4 4 5 5 5 5 6 7 8 8 7 6 7 8 8 8 7 6 7 9 10 9 9 11 12 11 11 11 11
2 2 1 0 0 2 3 2 2 3 4 5 4 4 4 4 5 6 5 5 4 3 3 3 2 2 3 3 3 2 1 2 2 3 2 2 1 2 3 2 1 0 0 1 1 1 1 1 1 2 2 3 3 3 3 3 4 4 4 5 6 7 7 7 8 8 9 9 7 6 6 6 7 7 7 7 8 9 9 9 10 12 12 13 12 12 11
2 2 2 3 2 2 2 2 2 2 3 3 3 3 3 4 5 7 7 5 4 3 2 1 1 3 3 2 1 1 1 2 3 3 2 2 2 2 2 1 1 1 1 2 2 2 2 1 1 1 2 3 3 3 3 3 4 4 5 6 7 7 6 7 8 9 9 8 7 6 5 6 6 7 8 9 8 7 6 7 11 13 14 14 13 12 10
Wind_Direction
313 317 318 319 323 330 334 337 339 345 351 352 348 342 330 190 285 295 263 195 287 342 263 268 295 234 245 265 259 252 253 243 241 255 255 201 220 216 214 213 204 221 221 196 205 216 214 216 205 214 244 220 220 243 245 222 185 169 201 216 197 158 141 182 223 273 268 266 282 237 162 150 185 241 200 172 189 189 186 191 181 191 200 143 140 234 265
312 314 316 318 322 327 330 334 338 344 351 351 345 337 320 274 275 296 276 217 227 259 219 254 271 261 277 283 271 257 242 237 232 242 246 213 206 225 232 216 207 218 210 197 208 203 202 232 227 219 230 232 241 248 248 237 201 192 202 187 180 202 188 169 192 245 257 264 283 273 229 175 195 222 185 179 185 163 137 105 158 214 211 169 168 224 250
311 312 313 317 321 324 326 330 336 341 346 348 345 323 293 307 249 261 290 251 206 206 219 240 267 295 314 290 272 259 235 234 224 220 228 225 209 221 247 230 216 219 208 214 226 211 197 234 278 263 218 253 271 269 271 253 213 220 217 183 168 195 192 167 182 203 216 217 222 226 213 193 219 206 182 190 181 165 161 130 171 228 230 165 171 210 247
309 308 311 317 321 323 324 328 335 338 342 346 342 298 276 334 281 278 306 324 70 263 324 40 5 328 344 306 270 231 233 260 226 207 222 234 216 214 241 238 236 240 226 231 243 230 211 214 253 277 257 263 271 293 314 284 233 247 226 177 143 156 192 189 191 200 209 209 216 213 165 158 207 211 191 193 190 180 169 144 177 202 178 179 211 199 208
306 306 310 315 318 320 322 328 334 335 339 345 338 276 225 309 276 323 335 326 348 358 19 43 22 321 330 304 281 250 242 272 257 209 216 230 212 208 233 225 218 223 216 222 238 229 223 224 234 247 246 255 276 301 308 263 258 309 222 169 136 114 212 213 201 208 215 212 212 199 165 173 195 199 199 199 193 178 169 183 199 166 142 230 252 196 185
304 306 310 312 313 316 320 327 331 333 338 343 338 243 226 279 275 2 5 302 305 335 338 353 337 294 281 273 281 287 265 261 281 265 280 286 205 183 237 228 218 218 209 210 224 214 221 237 236 230 230 247 295 318 309 265 297 3 5 180 144 148 214 213 200 222 230 225 220 194 176 198 198 191 201 199 186 175 181 203 199 159 171 228 227 182 193
302 303 307 309 310 314 318 325 329 333 339 344 348 227 293 304 296 346 3 306 284 290 302 311 304 286 280 264 258 278 274 268 308 313 315 315 247 190 240 247 234 234 224 215 219 204 203 227 234 221 215 216 84 348 314 292 347 26 11 301 129 160 228 207 187 223 238 232 231 205 185 212 224 214 213 204 191 185 192 210 200 179 209 231 196 187 208
300 301 304 305 308 312 317 322 326 332 342 350 9 64 347 342 300 330 347 308 285 282 282 288 297 296 276 253 267 308 292 314 350 322 259 271 285 238 259 276 282 271 240 221 221 215 206 215 226 216 209 210 168 175 249 272 343 5 1 302 37 166 251 231 163 214 247 235 231 221 200 209 228 236 233 219 202 194 203 217 194 181 239 254 175 186 226
297 300 301 301 305 309 312 319 322 329 346 1 19 9 347 321 283 292 315 300 287 286 288 289 301 298 267 247 338 339 319 349 343 304 232 220 249 292 317 298 304 289 244 223 223 237 243 246 253 250 239 239 208 181 201 211 345 341 324 294 354 171 235 342 94 185 257 235 218 224 210 203 232 247 245 229 205 197 208 204 179 180 208 214 159 185 237
295 296 297 298 301 302 305 312 315 321 342 10 25 332 340 331 301 288 289 288 289 299 307 303 265 267 288 358 356 321 297 323 329 300 264 239 231 249 345 317 310 296 270 251 277 307 297 269 264 266 272 283 274 190 164 143 223 289 300 311 329 131 127 4 107 190 265 247 208 202 181 184 244 249 235 222 208 206 220 212 200 192 172 166 188 215 234
292 293 294 296 297 297 298 300 303 308 325 1 27 308 328 334 310 297 284 270 269 304 319 296 248 287 356 355 341 311 294 309 312 283 302 296 275 307 326 315 304 274 262 281 312 290 272 260 263 259 260 285 288 279 44 6 269 221 212 308 325 40 65 297 170 187 267 267 196 141 152 206 239 240 213 205 201 204 213 214 208 202 181 188 230 240 243
288 290 293 295 293 291 290 291 294 295 295 313 332 296 314 322 299 282 264 264 272 335 334 280 255 294 320 317 309 298 289 295 293 275 273 281 288 298 299 292 271 255 282 316 316 297 273 257 271 254 227 246 277 351 41 349 303 275 201 216 279 310 14 228 163 166 265 299 91 139 216 230 241 263 203 197 198 192 190 188 198 211 222 242 259 259 243
284 286 288 291 290 288 287 287 290 288 278 276 286 294 319 332 301 272 259 266 273 277 282 277 269 275 285 284 282 285 285 286 284 275 262 262 275 286 284 255 240 280 312 319 319 325 345 7 48 209 202 104 25 20 65 280 300 306 272 199 217 235 215 189 148 167 252 324 134 198 239 251 255 303 48 108 150 145 135 112 263 237 216 208 232 256 248
284 283 283 286 286 283 284 283 283 283 274 263 269 289 306 305 269 265 276 268 265 271 282 284 282 277 274 278 289 298 300 298 293 283 270 262 266 275 283 280 281 300 312 312 315 351 65 15 4 319 333 43 62 356 273 267 287 290 280 264 194 182 168 224 276 232 176 174 231 248 293 313 266 314 36 90 107 133 140 150 218 231 209 189 213 263 261
284 285 284 284 282 277 278 278 276 278 274 262 263 278 289 286 258 250 258 266 276 282 260 238 254 350 347 321 318 314 310 316 317 306 296 281 267 273 298 310 302 301 303 291 313 20 85 99 99 162 287 174 180 200 182 249 269 268 274 338 50 137 161 185 230 253 116 112 272 298 109 209 228 247 244 158 132 169 161 138 171 238 314 192 198 231 239
284 285 286 284 279 274 274 273 271 271 267 261 262 270 284 295 263 249 257 270 273 273 250 227 294 3 334 306 304 301 292 307 323 315 309 310 305 304 312 312 299 295 311 4 43 54 81 135 178 191 204 191 184 192 160 156 235 310 319 360 54 62 70 126 130 321 75 129 164 203 190 208 234 252 263 289 169 195 150 120 162 262 340 355 182 199 198
284 283 285 284 279 275 275 273 269 265 261 258 256 262 278 294 275 253 257 253 247 261 281 291 297 310 302 293 297 287 272 303 323 322 313 313 313 317 321 323 316 321 9 34 24 47 89 140 143 193 233 219 169 167 164 147 144 151 326 336 14 33 21 46 59 332 297 144 175 219 212 223 268 285 299 310 289 162 115 121 201 275 329 354 137 183 172
282 280 281 282 281 280 279 277 271 263 256 257 255 258 275 290 275 244 252 268 263 261 269 274 270 260 247 273 295 287 295 316 323 315 295 287 295 322 323 323 324 338 13 41 28 29 61 159 145 163 253 277 167 167 189 166 156 153 124 5 345 1 24 49 92 319 324 318 213 247 255 253 288 308 307 309 326 98 123 179 229 290 327 60 99 126 159
280 279 279 279 279 278 276 274 272 265 254 253 253 254 268 284 272 244 247 263 263 258 272 297 295 277 268 283 286 278 291 301 293 303 302 283 323 333 317 289 279 328 3 44 40 29 27 308 291 126 246 297 330 182 227 192 163 144 131 129 302 304 12 33 75 73 356 316 247 266 247 252 335 326 313 321 83 150 194 207 248 304 337 86 85 74 89
280 279 278 277 275 275 274 270 268 268 260 249 247 253 269 283 272 240 238 261 276 273 275 274 267 264 268 270 265 269 284 284 263 278 280 271 335 351 342 296 311 330 351 45 38 15 351 299 311 58 107 285 302 322 291 269 222 156 146 152 174 183 149 342 314 135 55 319 298 224 192 279 337 335 328 24 102 187 195 135 49 337 21 80 76 61 67
278 278 277 277 275 273 273 269 265 265 260 249 244 252 270 278 257 225 258 284 285 277 282 286 279 276 275 266 257 258 261 254 249 269 280 275 310 358 351 297 317 322 334 42 49 2 331 277 280 336 56 300 298 293 305 312 318 326 134 150 165 164 162 211 226 154 109 263 271 238 213 280 326 344 359 4 15 167 160 118 93 57 49 75 79 68 59
277 277 277 277 275 272 271 268 264 260 256 251 244 242 255 267 266 278 297 282 257 259 279 290 291 286 280 275 269 262 256 254 253 253 260 277 276 226 250 296 291 253 253 49 102 38 322 275 263 21 40 308 304 319 322 181 234 310 348 128 171 181 170 178 184 152 155 193 233 253 246 281 334 4 5 352 17 42 45 81 95 76 39 50 75 70 56
280 278 277 276 273 270 268 266 262 255 250 246 239 236 248 265 275 296 308 280 261 268 273 276 282 283 276 271 270 267 261 257 253 246 235 233 258 246 237 260 263 243 71 98 143 157 207 226 218 51 253 239 289 333 325 268 246 309 327 350 330 73 88 75 113 149 147 166 247 284 302 8 14 7 356 7 30 26 22 59 77 68 53 59 68 62 41
279 278 277 276 273 270 268 267 264 256 250 246 242 245 256 266 273 290 303 273 269 286 274 263 260 260 264 274 285 285 271 258 254 247 231 214 214 280 246 221 235 356 349 239 183 146 177 193 134 55 308 273 87 3 302 289 309 337 346 333 341 42 56 52 132 147 138 153 263 307 325 357 29 17 12 28 33 15 16 55 69 71 71 68 62 58 43
276 277 277 276 274 273 270 268 266 260 255 252 248 248 255 261 263 260 245 258 281 291 294 286 250 253 274 291 294 285 275 266 261 250 228 211 206 221 242 235 339 3 317 256 123 68 333 181 98 70 330 321 71 115 261 257 272 323 49 32 334 335 10 43 103 128 139 152 172 255 299 322 32 55 43 31 31 24 22 42 60 65 67 65 58 56 54
277 279 279 277 275 273 269 266 267 267 266 262 256 251 252 260 260 234 213 258 280 251 264 282 274 284 309 309 291 285 285 279 264 244 227 217 213 218 233 268 317 333 327 341 99 89 18 32 88 100 259 291 318 269 250 260 279 292 88 101 268 290 322 37 89 86 91 127 146 181 225 345 360 28 37 2 354 41 55 49 51 56 62 68 64 54 55
275 275 275 273 271 270 270 268 266 270 274 273 267 261 257 262 262 247 231 233 239 247 262 264 284 310 316 301 293 295 295 283 263 242 229 221 215 216 226 248 280 299 313 321 38 88 93 79 107 147 183 247 305 284 247 267 282 291 76 4 324 339 334 358 95 132 166 142 151 178 160 106 348 13 40 353 317 39 73 60 54 57 55 63 69 62 53
271 271 273 273 270 269 271 271 270 275 277 274 275 277 275 272 268 260 251 240 228 248 295 281 289 307 305 294 297 302 298 280 258 236 224 215 207 208 214 222 236 257 259 218 252 85 146 178 180 165 169 196 270 258 234 273 315 50 30 343 347 95 243 299 105 132 225 360 69 197 121 95 64 27 38 8 331 32 68 60 57 68 66 65 72 68 56
267 272 279 278 274 272 273 276 282 286 282 282 291 293 287 282 271 256 246 237 227 234 298 298 282 291 297 297 303 306 302 284 253 231 221 205 195 197 204 207 213 215 190 163 174 203 217 220 213 200 182 172 179 231 254 289 25 41 356 333 340 360 243 226 94 87 353 15 59 69 73 82 70 45 43 33 12 34 59 51 46 62 66 65 68 65 60
268 272 277 275 271 271 276 281 285 285 281 292 309 303 287 297 280 220 206 204 210 221 277 308 287 286 295 294 295 296 296 287 255 234 216 187 182 192 191 192 201 190 147 132 192 204 238 262 259 263 243 189 162 165 237 174 88 40 1 349 358 22 37 57 78 81 42 3 51 81 84 87 82 66 55 43 31 36 45 38 37 48 54 58 62 59 54
274 272 274 274 273 278 286 284 282 282 280 286 313 315 216 29 69 147 155 158 189 242 256 276 280 293 295 273 261 271 274 266 248 229 196 174 181 186 176 178 193 167 146 165 208 218 240 254 259 282 287 203 138 127 113 102 85 24 5 9 22 42 54 63 79 93 94 17 15 60 68 68 71 65 49 37 37 43 42 29 23 34 48 55 58 58 55
280 275 274 275 278 283 286 283 280 282 276 268 264 261 267 288 298 171 168 182 299 325 242 269 290 297 293 276 266 267 259 237 217 198 172 180 181 170 168 175 183 174 160 146 155 251 230 207 229 279 297 12 83 88 66 62 83 60 21 38 49 51 55 56 49 62 88 43 27 48 45 35 50 72 68 53 45 42 43 35 13 13 38 52 52 51 52
290 282 278 279 283 283 283 286 283 279 277 276 275 276 278 285 281 232 214 236 286 295 200 257 309 279 274 297 291 275 246 214 223 106 202 222 177 144 166 176 133 152 179 165 183 241 235 193 213 270 316 11 62 83 56 37 60 78 56 55 61 59 58 53 30 11 12 39 80 91 87 65 62 76 84 83 74 50 52 83 42 21 44 50 47 41 40
307 304 291 286 288 283 282 285 281 280 288 286 281 289 314 346 297 228 217 223 247 273 227 216 314 277 283 315 307 302 44 87 190 154 207 254 180 135 159 112 74 141 209 197 203 265 295 288 259 15 353 355 33 73 61 39 48 60 58 60 69 70 63 52 35 25 19 26 68 104 123 135 136 116 90 87 94 109 109 89 81 70 60 52 44 36 34
314 309 294 290 293 289 284 280 273 278 290 275 266 307 1 8 346 295 208 201 192 61 255 223 227 281 309 328 305 316 358 356 233 193 192 242 202 138 144 98 67 225 211 166 144 311 331 342 32 37 350 349 37 52 30 12 14 31 62 71 70 76 77 69 53 39 25 21 44 78 115 139 136 107 81 65 53 55 65 63 63 71 72 62 46 38 41
311 306 303 302 300 294 287 275 251 240 244 261 292 324 335 320 312 314 210 208 212 208 229 279 264 257 293 310 286 312 345 342 269 191 153 173 174 129 107 102 137 234 219 92 86 7 354 354 47 48 3 11 52 36 357 6 13 17 55 62 24 54 95 112 107 87 58 37 41 44 58 81 80 70 68 64 56 65 73 66 57 65 71 61 42 35 37
313 311 312 309 301 288 281 250 208 214 270 302 313 321 315 268 266 284 205 217 224 209 183 358 265 240 245 266 267 302 335 321 299 15 12 186 178 166 81 100 174 233 44 57 66 62 25 9 65 75 52 42 57 35 17 29 23 3 16 33 30 47 84 113 119 114 107 90 74 60 57 66 67 66 73 71 62 64 66 58 50 58 61 51 35 29 25
320 317 314 312 311 296 254 212 223 279 301 307 312 315 279 156 158 238 174 195 217 203 167 180 248 244 232 250 261 283 308 299 334 45 62 200 167 116 70 111 166 166 75 64 63 79 53 27 53 77 71 47 45 36 21 23 25 15 19 24 21 30 45 52 116 162 154 120 94 79 75 73 66 58 67 69 60 56 58 51 44 49 52 46 35 24 16
334 329 316 302 279 242 255 282 297 301 300 296 274 224 201 73 76 259 252 209 202 199 172 208 240 235 201 234 269 276 244 269 339 16 24 259 129 119 105 100 93 73 79 78 4 54 71 52 44 72 72 38 23 14 3 13 30 28 20 18 16 22 42 50 52 128 129 114 110 121 114 104 96 87 83 80 67 53 47 44 42 41 38 34 34 28 17
347 340 325 260 265 286 299 307 310 306 299 248 110 16 340 93 165 206 222 223 212 205 190 199 233 231 202 218 271 284 242 235 310 360 11 320 299 98 83 93 144 76 70 51 337 39 87 92 62 67 71 37 342 339 356 26 43 31 14 13 20 26 53 73 70 78 95 100 105 104 92 99 110 109 105 100 87 69 54 44 40 37 32 30 31 27 10
350 343 316 295 297 302 308 315 319 313 119 63 11 360 35 259 253 223 197 244 261 231 188 159 329 287 219 199 228 259 258 256 252 158 97 337 330 65 69 359 322 70 70 13 302 30 79 86 77 74 61 342 320 340 12 34 45 36 19 6 2 17 68 75 66 63 73 79 76 65 63 73 85 89 102 116 113 102 91 73 57 48 42 32 19 12 9
320 305 295 296 297 298 305 321 351 65 66 47 26 319 250 254 265 255 228 251 253 216 149 139 235 258 227 190 198 234 250 268 283 106 88 16 353 72 77 338 29 74 91 246 295 45 74 86 87 83 11 332 338 8 33 41 45 42 32 18 21 45 57 60 53 48 52 61 62 53 54 62 61 56 70 93 97 89 82 72 59 45 36 29 24 25 22
314 298 292 298 299 296 311 341 328 77 66 60 36 350 341 330 314 310 290 281 300 7 75 186 256 278 268 213 221 261 268 264 288 61 67 24 357 50 55 28 38 72 116 315 26 47 66 85 95 109 18 360 11 22 31 36 39 45 43 38 37 39 44 53 56 47 42 47 51 47 46 49 47 46 54 64 67 61 54 48 41 33 29 28 28 28 25
323 302 302 329 311 304 4 329 300 70 45 25 72 70 12 331 317 329 335 323 331 343 299 254 289 339 329 255 228 288 293 288 13 56 41 7 9 43 58 46 33 44 56 58 55 40 46 71 88 110 101 59 21 8 21 28 29 36 33 26 28 37 42 46 50 48 42 41 42 42 42 41 39 40 43 45 45 45 42 35 32 31 32 31 27 23 22
348 360 31 11 330 332 52 6 336 34 27 334 279 107 297 269 259 266 275 268 273 293 296 295 301 300 273 257 221 199 302 324 34 42 7 6 29 25 23 110 114 56 55 67 67 34 55 72 72 69 78 56 344 351 19 28 25 28 29 23 25 34 43 49 52 53 49 43 41 43 43 40 35 33 31 30 32 37 38 33 29 28 29 28 22 14 14
6 359 68 54 343 332 47 19 352 4 4 283 269 272 263 249 246 252 255 247 247 272 291 299 294 264 263 275 358 83 348 30 53 32 352 75 78 32 349 64 65 44 48 62 54 44 66 79 63 20 22 11 358 4 17 18 18 26 36 34 26 23 29 42 47 44 40 41 44 44 41 38 36 32 25 23 27 32 34 33 30 26 24 21 13 6 8
335 329 86 82 7 341 14 27 317 294 280 270 262 255 250 249 258 268 266 260 268 282 289 289 272 248 263 314 31 22 349 51 77 22 334 48 79 29 10 54 57 42 49 56 41 31 50 44 341 337 349 356 1 7 13 13 13 21 29 29 22 18 20 25 28 25 23 27 33 33 30 28 27 25 23 22 24 27 29 29 26 22 19 15 9 7 9
354 355 78 76 29 331 336 354 344 306 284 269 264 270 270 271 300 306 285 265 278 300 299 290 289 332 332 352 47 50 355 34 81 95 325 49 66 33 26 53 61 58 61 56 22 297 242 262 300 324 335 339 346 359 6 4 5 15 24 21 12 8 9 10 11 10 10 14 21 21 14 15 18 19 19 19 15 14 17 21 21 17 15 11 5 5 7
82 46 60 62 60 265 278 320 336 301 287 278 284 307 334 351 334 319 301 280 281 278 261 252 212 64 2 341 43 56 12 8 54 59 23 48 65 67 62 65 62 56 56 52 244 245 263 302 330 341 337 334 354 6 360 358 5 15 17 9 359 358 359 358 356 357 360 5 8 1 357 4 14 16 16 14 3 359 7 18 21 15 11 8 1 357 357
40 55 67 60 36 317 304 332 2 342 344 357 356 347 352 350 335 333 336 322 312 321 340 351 24 51 15 360 39 43 14 4 50 51 39 45 59 87 78 72 75 113 170 204 222 244 298 313 41 48 6 353 16 16 360 356 1 358 347 343 351 357 357 353 351 353 355 356 352 346 349 358 3 3 2 358 345 347 2 20 22 11 6 4 360 354 350
14 42 40 305 321 306 307 320 333 331 340 347 336 322 331 339 330 326 326 324 335 16 28 6 355 33 36 33 38 30 354 16 44 47 43 34 17 41 65 69 65 198 192 256 266 284 309 309 80 66 12 353 358 356 342 339 342 339 338 345 351 353 355 357 355 351 349 349 348 341 336 339 343 344 343 342 343 349 1 13 11 4 359 358 356 352 347
22 4 314 286 260 252 285 309 292 274 292 300 290 292 321 334 318 311 320 342 20 35 16 345 53 59 48 42 39 10 25 41 39 30 36 41 33 52 95 139 233 341 17 343 329 335 333 313 307 309 308 315 327 330 330 337 342 339 340 344 344 345 350 355 352 346 344 345 342 327 311 310 323 330 332 336 342 347 344 346 352 355 354 351 349 348 345